星链-1348 (STARLINK-1348 )

导读

STARLINK-1348是美国SpaceX公司星链星座中的一颗低轨卫星,于2020年4月22日发射升空。星链星座旨在构建全球覆盖的卫星互联网系统,为偏远地区、基础设施匮乏区域提供高速低延迟宽带服务。STARLINK-1348作为星链组网卫星之一,运行在近地轨道,承担着信号转发功能,助力实现全球网络覆盖,推动星链星座通信能力的搭建,也是 SpaceX 大规模低轨互联网星座部署中的组成单元。

基本信息
目录编号:
45561
目录名称:
STARLINK-1348
国际标识:
2020-025AG
轨道中心:
EARTH
卫星名称:
星链-1348
卫星全名:
星链-1348 (STARLINK-1348 )
卫星状态:
已陨落 最后检测时间 2023-08-05
发射日期:
2020-04-22 UTC
国别 :
美国 (US)
星等 :
--
轨道信息
数据来源 国际轨道数据
星历时间: 2023-08-05T12:21:32+0800
轨道信息已过期1044天
半长轴: 6543.982km
偏心率: 0.0001873
轨道倾角: 53.002°
近地点辐角 14.092°
升交点赤经 208.026°
平近点角 58.255°
近地点: 164.621km
远地点: 167.073km
周期: 87.806分钟
每日圈数: 16.399844
详细信息
固有亮度:
5
最大亮度:
2.5
卫星平台:
Starlink V1.0
覆盖范围:
全球
运营商:
太空探索技术公司
运营商所在国:
美国
制造商(研发单位):
太空探索技术公司
制造商所在国:
美国
使用方式:
暂无
卫星简介
星链(Starlink)计划是由太空探索技术公司(SpaceX)提出的一个巨型低轨卫星互联网星座项目,计划在2019年至2024年间在太空搭建由约1.2万颗卫星组成的“星链”网络,其中1584颗将部署在地球上空550千米处的近地轨道,并从2020年开始工作。该卫星已陨落。